Theta_e
304 305 305 305 305 306 306 306 306 306 306 307 307 306 307 309 309 310 310 313 313 312 314 313 312 315 316 316 315 310 314 315 318 315 326 339 339 337 338 340 341 339 343 339 343
305 305 305 305 305 305 306 306 306 306 307 307 306 307 309 310 310 313 313 314 313 313 311 311 313 314 312 315 315 314 313 315 315 316 328 338 338 338 341 341 342 341 340 344 344
305 305 306 306 306 306 307 306 306 306 307 307 306 307 311 309 312 310 317 317 314 313 315 315 314 312 313 314 314 313 316 315 317 317 321 335 338 337 340 342 341 341 340 343 346
305 305 305 305 306 307 307 307 307 307 307 307 307 309 311 311 309 316 318 314 317 311 315 314 311 311 311 314 314 317 315 316 317 316 324 335 337 340 338 338 336 338 339 342 346
304 304 304 304 305 306 307 307 308 308 307 307 307 311 312 311 309 311 314 316 314 312 315 311 311 311 315 314 315 315 316 315 314 314 321 332 338 338 338 336 332 339 338 345 345
304 304 304 304 305 306 307 308 308 308 307 307 309 310 313 309 310 314 319 315 312 314 314 312 311 311 316 317 315 314 315 315 316 315 313 329 335 337 336 335 334 338 338 338 343
304 304 304 305 306 307 307 308 309 309 309 308 311 311 315 309 314 316 314 315 316 315 312 313 315 316 316 318 316 316 319 316 318 315 331 333 338 338 335 332 334 337 338 336 336
304 305 305 306 307 307 308 311 315 314 311 311 309 313 307 312 312 312 312 312 313 316 314 314 315 313 317 316 314 317 315 318 318 318 327 323 324 323 333 333 333 337 338 337 338
304 304 306 307 308 308 311 314 315 313 312 310 313 314 309 313 315 316 315 313 314 315 315 314 314 314 315 314 313 312 318 319 318 316 330 326 319 315 320 332 334 336 338 337 337
304 305 306 307 308 310 311 316 316 318 318 317 317 313 311 314 317 319 318 315 318 313 315 314 312 314 312 313 314 318 319 318 318 318 317 317 321 316 315 332 333 334 335 336 336
304 305 306 307 308 311 312 312 307 307 309 312 314 309 311 315 318 319 316 315 317 317 316 315 315 316 316 316 316 318 319 319 318 317 319 317 316 315 319 330 332 333 335 335 338
304 304 305 307 308 310 312 308 308 308 308 308 308 309 312 314 315 317 319 317 318 318 316 316 316 315 316 317 318 319 320 318 317 318 317 317 317 324 333 332 332 333 332 337 340
303 303 304 306 309 308 310 309 306 307 307 308 309 310 311 313 314 316 317 315 318 317 316 317 319 315 317 319 319 318 319 319 319 318 317 317 318 324 340 341 337 340 338 338 340
302 302 302 304 307 305 308 307 308 308 308 311 317 315 313 314 316 316 319 316 317 316 315 316 316 317 317 318 317 319 317 318 319 320 319 317 319 317 333 342 343 344 340 338 338
301 301 301 300 302 303 307 308 310 310 311 317 317 315 313 316 317 319 318 315 315 317 317 319 318 317 318 317 317 317 319 319 320 318 318 319 318 317 336 344 340 340 338 336 335
300 300 300 301 300 305 307 308 310 304 306 314 315 315 316 317 318 316 318 316 314 316 318 317 318 317 318 318 318 319 320 317 315 315 318 318 318 317 340 341 340 341 337 336 333
299 300 299 300 302 304 304 307 306 307 309 317 315 314 314 315 317 319 316 316 316 316 316 315 316 318 319 319 318 318 316 319 320 319 320 317 318 318 319 324 330 336 336 338 335
299 300 301 301 302 303 306 305 308 308 312 316 314 314 316 314 316 317 315 314 313 313 312 315 315 314 316 317 318 316 316 319 322 320 320 318 321 322 332 338 337 335 336 337 335
299 299 303 304 306 302 303 306 307 308 314 315 313 314 314 314 314 316 317 315 313 313 316 315 316 317 318 318 318 319 318 316 318 318 320 318 319 330 340 344 339 338 338 337 336
299 301 303 308 304 305 304 308 307 310 314 315 313 315 315 314 313 312 315 319 318 313 313 315 317 317 319 319 318 319 317 320 315 322 322 318 321 325 331 340 342 339 337 336 334
301 298 305 305 308 304 307 306 309 310 313 314 314 314 314 314 314 314 315 318 316 315 312 313 314 317 317 316 316 315 317 317 315 318 320 321 319 318 328 330 341 338 336 334 333
298 298 306 307 307 304 307 308 311 313 314 314 314 313 314 314 316 314 314 317 314 315 316 315 312 315 315 314 315 314 315 316 318 320 319 319 320 317 319 327 337 338 336 332 330
296 298 306 307 310 310 310 312 313 314 314 314 314 314 315 315 316 314 315 316 317 315 315 314 313 317 318 316 316 318 316 316 315 316 321 322 322 323 330 333 336 338 336 332 329
297 299 301 303 304 309 312 312 313 313 314 313 312 314 315 316 313 314 316 318 317 319 328 316 313 315 319 319 318 321 321 317 316 317 319 322 321 320 333 333 334 336 335 331 328
296 300 302 306 307 308 310 312 312 313 312 311 314 315 315 316 315 318 319 318 316 318 314 314 317 318 318 319 320 321 323 320 317 318 320 321 319 319 322 331 332 333 331 330 329
299 301 300 302 304 307 309 310 312 311 308 308 314 314 313 313 315 318 318 317 316 315 313 312 317 316 317 316 317 322 322 322 319 319 318 320 319 317 318 328 330 331 331 331 330
299 299 299 302 304 305 306 308 309 307 309 312 313 312 313 313 314 312 312 313 312 314 313 315 315 314 315 318 318 316 320 323 320 318 320 321 321 328 332 330 331 330 330 331 330
Wind_Speed
17 17 17 17 17 17 17 17 18 18 18 18 18 17 16 16 16 14 8 11 3 16 12 7 2 2 2 2 2 4 4 2 4 5 4 3 5 3 3 6 2 3 1 3 29
17 18 19 19 19 19 18 18 18 18 19 19 18 16 15 15 16 13 18 12 13 5 15 12 3 4 3 1 0 4 4 9 5 5 5 4 6 6 2 4 3 3 2 21 29
19 19 19 20 20 20 20 20 19 20 19 18 17 14 12 11 5 6 5 8 17 13 6 9 9 4 3 1 3 4 6 6 4 8 6 5 4 5 4 5 9 3 8 17 20
20 21 22 22 22 22 21 21 21 21 18 17 14 11 8 4 2 1 7 13 10 17 12 9 4 5 4 4 4 3 7 4 5 6 5 6 5 6 8 9 5 0 8 13 15
21 22 23 24 24 24 23 23 22 20 18 15 12 7 1 2 9 7 14 4 18 20 13 6 5 5 5 4 2 4 4 4 7 6 8 6 11 7 13 12 5 6 12 13 14
22 23 24 25 26 25 24 25 23 19 15 12 8 3 2 3 3 7 4 11 14 18 10 8 7 6 4 3 4 6 4 7 5 6 5 6 0 5 10 7 6 1 6 12 14
23 25 26 26 26 26 28 25 21 17 13 8 3 3 2 13 3 7 4 3 6 16 6 7 5 3 3 2 3 3 4 7 2 4 2 8 0 10 20 4 10 10 7 9 11
26 27 27 28 29 29 26 24 17 10 4 2 4 4 6 5 8 16 15 9 9 11 9 3 9 3 2 2 6 4 4 3 3 1 2 3 8 10 16 10 9 11 12 12 9
27 29 28 29 29 30 23 14 8 5 4 6 4 3 8 7 8 5 12 6 8 7 7 3 5 3 4 4 5 6 1 1 7 4 5 0 9 10 5 11 10 14 15 13 7
29 31 30 30 31 23 22 4 5 3 4 2 1 1 5 1 5 10 6 10 4 7 3 2 4 3 3 4 4 2 2 3 4 3 2 4 17 11 10 14 13 14 14 13 8
27 30 30 29 30 16 18 2 7 3 4 6 4 4 4 7 5 2 2 9 4 4 4 2 4 5 7 6 4 3 3 4 5 4 3 7 7 11 10 3 10 12 15 13 5
27 29 30 26 23 13 11 7 5 4 9 12 17 11 16 3 5 4 3 5 4 5 4 3 4 8 4 4 4 4 3 6 8 2 6 4 7 7 3 4 5 11 7 7 6
27 29 29 28 11 12 6 7 13 2 3 7 5 4 4 13 8 7 6 4 4 5 5 6 5 5 6 3 2 3 3 4 6 7 4 5 6 6 2 3 1 5 5 7 10
26 27 29 28 3 17 3 12 20 6 5 7 3 4 3 5 4 11 12 6 3 10 8 5 5 6 3 4 6 4 5 7 5 2 2 2 4 5 6 8 4 3 5 8 9
26 26 25 21 13 8 8 19 9 4 5 2 1 1 1 3 2 2 5 5 7 6 6 7 3 3 4 8 7 8 5 4 3 4 2 3 4 7 5 6 9 7 7 7 8
26 24 25 12 16 11 12 20 1 5 6 6 2 1 2 3 5 2 3 5 4 5 1 7 2 5 7 4 8 2 3 6 5 3 1 5 5 6 4 7 7 3 7 6 6
28 25 21 18 4 9 16 4 4 3 4 5 3 5 3 2 3 1 5 6 6 4 3 4 4 4 4 2 0 3 6 3 3 3 5 0 2 8 5 7 8 10 9 10 10
30 23 14 16 12 5 6 5 3 3 4 4 5 6 4 8 4 3 6 4 1 5 3 5 6 7 4 8 7 6 8 5 5 4 4 2 5 6 4 9 14 3 11 12 13
29 15 9 3 5 11 4 2 7 5 3 6 6 5 5 5 5 4 2 3 6 7 7 4 6 4 3 3 8 2 4 4 5 2 2 4 7 7 4 6 2 7 12 13 14
19 10 7 8 8 9 4 5 4 3 3 4 2 3 4 5 5 6 3 0 1 6 3 6 4 5 2 3 1 4 5 1 3 2 4 4 5 5 7 8 6 6 9 11 11
7 4 12 6 6 4 4 6 4 5 1 1 2 2 3 4 3 4 3 5 6 6 5 4 5 7 4 5 8 1 1 4 4 5 5 3 6 8 10 8 13 11 9 10 11
4 2 4 3 3 1 4 6 2 1 3 2 1 4 2 2 2 3 3 4 10 2 3 2 4 5 9 4 5 7 9 6 4 5 3 4 6 5 9 7 9 11 10 7 7
2 2 5 2 2 2 4 3 2 0 1 0 2 3 1 1 2 3 5 4 14 9 5 2 1 4 8 5 4 1 4 5 4 3 6 4 6 2 4 5 8 12 12 10 9
2 1 3 3 0 4 3 3 2 1 3 3 3 4 3 2 1 3 5 3 10 6 8 0 2 6 6 5 2 4 5 5 5 4 4 7 6 8 7 9 9 11 12 10 12
2 1 1 1 2 2 4 3 3 1 1 3 4 4 3 2 2 2 5 8 8 8 7 5 3 5 5 5 4 7 10 8 8 8 9 10 9 10 10 12 16 11 6 11 14
2 1 2 1 3 2 2 6 7 2 2 2 5 3 3 3 3 3 2 2 6 6 7 5 4 3 4 6 7 9 12 10 12 6 8 5 8 8 6 3 7 13 15 16 17
1 1 3 2 1 3 2 1 1 5 3 4 3 2 2 1 1 5 7 6 6 3 3 2 1 4 4 4 7 13 7 11 5 6 10 10 12 6 5 10 14 12 17 21 17
Wind_Direction
1 357 354 351 349 345 343 340 336 334 332 331 331 328 325 322 314 298 252 247 222 222 198 170 339 70 117 91 105 137 70 200 228 165 243 201 198 212 271 276 172 192 348 158 158
359 356 353 349 346 343 340 336 332 330 328 328 329 327 328 325 315 268 280 273 228 192 200 206 164 138 62 94 27 106 134 213 211 192 219 210 195 190 225 287 247 164 113 128 147
355 352 350 346 344 341 335 332 330 327 324 324 325 326 328 329 324 248 65 12 209 183 140 154 136 109 125 114 194 174 192 188 229 218 186 196 219 181 186 268 233 191 149 155 159
354 352 348 344 341 337 333 330 325 323 319 318 320 321 323 336 299 323 298 334 186 185 150 130 74 107 130 198 195 179 255 166 260 223 151 187 159 203 198 220 37 94 145 162 175
353 350 347 345 341 336 329 324 320 316 312 312 313 315 336 29 254 300 318 337 159 170 162 132 134 144 173 197 168 198 256 191 226 217 231 142 199 185 233 228 339 357 140 169 194
353 350 348 343 339 333 328 321 316 308 304 302 302 297 123 273 255 312 39 137 170 169 166 152 184 194 135 211 180 206 247 271 255 211 233 182 38 138 262 197 216 264 186 176 202
353 350 347 343 341 336 328 325 315 303 295 286 273 162 129 236 215 137 61 69 192 187 145 198 163 107 143 317 278 275 301 324 258 167 146 125 247 222 234 140 208 183 202 203 208
350 348 344 342 341 337 333 329 321 309 274 211 168 142 243 262 259 257 273 253 222 209 220 266 209 165 172 270 11 12 48 29 273 347 349 37 269 264 243 186 189 188 206 215 204
348 346 344 343 343 340 342 335 4 45 85 128 125 141 266 299 273 312 236 208 165 175 185 73 150 162 53 82 17 2 189 271 319 324 121 38 271 253 276 199 179 188 210 217 197
347 345 343 343 344 346 350 12 24 35 78 90 121 352 270 273 315 301 269 189 124 116 92 110 51 88 46 77 214 192 20 310 266 238 81 213 250 286 258 204 191 187 206 219 203
344 343 343 343 344 353 4 344 10 351 352 223 205 249 287 302 303 352 218 136 108 91 144 224 97 196 210 188 171 152 191 241 253 222 307 271 286 303 324 161 161 186 209 213 166
342 341 341 343 343 2 39 78 104 261 303 242 249 255 257 357 332 293 180 127 121 184 117 30 244 221 190 156 180 202 250 276 290 244 186 322 303 282 357 310 215 191 173 159 126
341 340 341 343 346 3 62 86 345 268 263 296 220 215 217 163 203 247 163 136 138 144 165 164 235 153 158 190 235 258 206 241 233 325 300 327 311 340 344 340 146 86 113 158 170
340 341 342 344 29 341 316 337 342 169 22 283 295 291 133 167 230 200 179 148 136 182 158 216 258 208 171 222 147 288 209 233 257 35 247 16 272 308 327 308 257 172 157 160 146
338 338 340 344 318 309 319 331 343 155 350 295 13 225 109 194 295 197 176 79 157 157 120 234 191 172 175 222 170 230 220 219 226 197 75 293 88 269 5 312 280 192 167 181 155
334 332 333 330 311 305 320 331 68 44 260 326 106 11 124 235 306 98 123 80 147 154 200 213 224 172 202 183 188 229 334 31 47 82 43 247 141 282 208 217 280 172 155 155 134
330 326 316 297 260 315 322 352 47 158 323 330 330 350 320 306 256 92 155 151 151 130 287 328 248 250 196 199 345 118 66 322 343 8 215 106 62 236 257 239 242 269 156 150 154
327 324 305 282 268 295 346 52 198 252 259 332 337 319 67 5 16 294 128 142 133 100 117 177 315 185 197 181 194 188 156 157 227 201 248 94 237 247 233 284 268 67 141 145 155
331 326 308 331 301 201 81 105 209 215 325 347 334 54 341 359 24 33 26 181 202 174 172 152 276 290 207 161 140 178 163 183 123 20 83 247 295 315 317 319 0 136 144 156 164
334 325 314 336 150 130 82 226 234 245 343 19 358 33 2 336 41 32 344 104 121 210 178 204 284 214 220 85 22 164 164 67 17 201 245 287 290 237 264 250 240 212 190 170 162
344 6 346 137 123 58 164 234 273 244 28 86 166 317 349 353 22 337 294 12 6 345 145 147 154 256 119 182 196 18 249 60 126 147 185 224 258 221 231 224 208 210 203 186 169
358 22 82 101 58 14 170 195 239 154 1 337 198 224 220 33 342 288 257 354 348 342 34 1 160 256 221 243 195 171 198 155 138 258 209 173 267 272 253 265 179 196 198 182 164
34 276 210 318 159 248 280 260 235 310 214 266 257 195 70 38 331 246 307 61 16 15 12 302 317 347 346 10 12 160 225 177 133 99 199 184 261 254 263 208 210 194 186 176 163
76 18 312 45 298 166 171 250 255 316 259 224 255 79 89 53 336 301 339 5 332 351 349 35 159 174 202 210 180 297 283 229 165 137 213 216 255 270 237 212 207 209 194 172 163
40 223 209 243 316 236 179 155 154 259 322 358 48 85 103 113 11 56 19 341 335 13 22 53 249 200 262 260 267 244 267 261 205 213 204 253 210 251 222 213 213 208 142 162 170
146 149 12 268 311 300 206 216 196 153 312 336 115 137 112 149 164 193 100 195 252 326 13 357 287 315 266 268 249 262 260 262 239 227 251 239 257 236 263 194 179 191 174 186 188
165 255 110 308 347 136 228 276 98 148 76 52 85 96 201 236 188 237 210 224 224 241 309 304 271 0 263 303 339 286 209 218 243 209 211 229 234 167 232 208 215 202 190 197 185